Dewpoint
72 74 73 72 73 71 70 71 72 71 74 73 72 72 74 72 71 69 70 73 72 73 73 72 72 71 71 70 71 71 72 72 73 73 73 73 74 73 73 71 73 73 72
72 71 71 70 71 70 72 71 72 72 73 72 72 71 72 72 72 73 75 71 73 72 73 73 72 71 71 71 71 71 71 73 73 73 73 73 73 74 73 73 71 72 72
73 75 71 71 70 72 73 73 74 73 76 71 73 71 70 72 72 74 73 72 75 74 73 73 73 73 71 72 71 71 72 71 72 73 73 73 74 73 74 74 74 74 72
75 75 71 70 71 71 70 70 70 70 70 70 71 74 70 70 71 74 73 73 72 71 73 74 74 73 73 72 72 72 72 71 71 71 73 73 73 74 74 74 74 74 74
75 75 71 70 73 70 70 70 70 72 71 69 68 68 69 70 71 70 72 73 73 73 72 73 74 75 74 73 72 72 73 71 70 71 72 72 73 73 74 74 74 74 74
74 75 72 73 74 76 70 70 74 71 72 70 68 68 68 68 70 70 70 69 71 73 73 74 72 72 75 74 74 73 72 73 71 71 71 72 72 73 74 74 74 74 74
74 76 72 72 75 75 73 75 73 72 71 71 69 66 67 68 68 69 68 69 70 70 71 72 73 76 75 75 75 73 73 73 73 70 70 71 71 73 73 73 73 74 74
75 74 77 72 74 71 75 75 75 72 69 72 72 68 62 65 65 66 67 68 68 68 68 71 72 74 75 75 72 75 73 73 73 71 70 70 71 72 73 73 73 74 74
74 75 75 74 74 75 70 74 74 74 71 73 73 66 60 61 68 73 68 67 69 67 66 67 71 73 74 73 73 74 74 73 72 73 70 70 72 73 73 73 73 73 73
73 74 75 75 76 73 76 72 73 75 74 71 70 76 72 70 66 64 62 63 65 66 66 67 68 73 73 73 73 74 74 74 72 73 72 70 72 72 72 73 73 73 73
74 73 74 75 76 74 74 77 76 76 75 78 75 71 73 75 73 68 64 64 64 65 64 67 70 72 73 74 73 73 73 74 73 73 73 72 71 71 71 72 73 73 73
68 74 73 76 76 75 77 75 77 78 76 75 77 77 74 72 69 66 63 64 65 66 66 65 70 71 72 73 72 73 73 74 74 73 72 72 72 72 71 71 71 73 72
67 70 75 76 73 78 78 80 79 77 76 75 74 72 77 72 71 69 67 64 64 65 66 66 67 70 71 72 72 73 73 73 73 72 71 71 72 73 72 73 73 73 72
66 71 73 74 76 77 77 77 77 72 76 78 75 76 73 72 71 70 65 65 63 64 64 69 66 67 69 70 72 74 72 72 72 71 71 71 71 72 72 73 73 73 73
68 73 75 75 76 77 77 78 72 75 76 76 74 75 76 71 71 71 67 67 67 64 62 64 66 68 69 69 72 72 72 71 71 71 71 70 70 71 71 72 72 72 72
72 75 74 75 75 77 77 79 74 75 76 80 77 75 76 72 71 71 69 70 71 69 65 62 64 67 70 71 72 72 72 72 72 71 71 70 70 70 70 71 71 71 71
73 75 77 76 76 76 77 77 77 76 75 76 76 76 74 76 69 67 67 66 70 70 68 66 68 70 73 73 72 73 72 71 70 70 70 70 70 70 70 70 70 70 71
72 75 76 77 77 77 77 78 76 74 75 75 75 74 72 69 70 68 64 68 66 71 71 69 70 68 71 74 74 73 72 69 68 69 70 69 69 68 68 68 68 68 67
74 71 75 77 77 77 77 77 77 76 75 75 75 73 69 69 68 64 64 61 59 61 61 62 63 64 65 67 71 72 71 70 69 71 69 68 68 68 67 66 66 65 64
74 74 73 75 76 76 75 76 76 76 75 75 75 68 67 67 66 66 66 66 64 62 61 57 57 58 61 65 66 68 68 67 66 65 69 68 69 68 67 66 65 65 63
74 75 76 76 76 75 73 76 76 74 75 73 68 67 66 67 64 66 60 64 66 61 56 55 54 54 56 58 61 61 62 64 68 67 65 65 66 68 69 67 68 68 65
76 77 76 76 76 73 71 72 74 73 74 69 65 66 65 67 66 65 64 64 64 64 64 58 57 57 63 61 59 57 57 56 56 63 69 69 73 70 75 74 67 66 66
77 77 77 77 77 76 69 70 72 68 68 63 65 63 59 55 62 64 65 64 63 63 62 63 63 62 63 64 64 62 61 59 58 57 61 61 66 66 69 69 67 66 65
77 77 77 77 77 73 67 68 69 66 63 63 62 62 63 62 63 64 63 61 61 62 62 61 62 62 62 61 61 61 61 61 58 56 62 56 60 65 65 66 66 66 65
74 70 71 71 72 69 64 64 66 65 63 65 64 64 63 63 60 60 62 61 62 61 59 61 60 58 57 57 57 55 53 51 49 48 51 50 52 58 61 65 70 66 64
71 69 68 70 68 68 59 61 65 62 62 60 64 64 60 60 55 55 59 61 61 60 61 61 60 59 60 59 59 61 57 53 51 48 52 50 50 52 52 54 61 65 68
Lifted_Index
-4 -4 -4 -4 -4 -4 -4 -4 -4 -5 -5 -5 -4 -4 -4 -4 -4 -4 -4 -3 -3 -3 -2 -2 -2 -1 -1 -1 -1 -2 -3 -3 -4 -4 -5 -5 -5 -4 -4 -4 -4 -5 -5
-4 -4 -4 -4 -4 -4 -4 -5 -5 -5 -5 -5 -4 -4 -5 -5 -5 -5 -4 -4 -3 -3 -3 -2 -2 -1 -1 -1 -1 -2 -2 -3 -4 -4 -4 -4 -5 -5 -5 -4 -4 -5 -4
-4 -4 -4 -4 -4 -4 -5 -5 -5 -5 -5 -5 -5 -5 -5 -5 -5 -5 -5 -5 -4 -4 -3 -3 -2 -2 -1 -1 -2 -2 -2 -2 -2 -3 -4 -4 -4 -5 -5 -5 -5 -5 -4
-5 -5 -5 -4 -4 -5 -5 -5 -5 -5 -5 -5 -5 -5 -5 -5 -5 -5 -5 -5 -5 -4 -4 -3 -3 -3 -2 -2 -2 -2 -2 -2 -1 -2 -3 -4 -4 -5 -5 -5 -5 -5 -5
-5 -5 -5 -5 -5 -5 -5 -5 -5 -5 -5 -5 -5 -5 -5 -5 -5 -5 -5 -5 -5 -5 -4 -4 -4 -3 -3 -2 -2 -2 -2 -1 -1 -1 -2 -3 -4 -4 -4 -5 -5 -5 -5
-5 -5 -5 -5 -5 -5 -5 -5 -5 -5 -5 -5 -5 -5 -5 -5 -5 -5 -5 -5 -5 -5 -5 -4 -4 -4 -4 -3 -3 -2 -2 -1 -0 -0 -1 -2 -3 -4 -4 -4 -5 -5 -5
-6 -6 -6 -5 -6 -6 -6 -6 -6 -6 -5 -6 -6 -5 -5 -5 -4 -4 -5 -5 -5 -5 -5 -4 -4 -4 -4 -3 -3 -2 -2 -1 -1 0 0 -0 -2 -3 -3 -4 -4 -5 -5
-6 -6 -6 -6 -6 -6 -6 -6 -6 -6 -6 -6 -6 -6 -5 -5 -4 -4 -5 -5 -5 -4 -4 -4 -4 -4 -3 -3 -3 -3 -2 -1 -1 -0 1 0 -1 -2 -3 -3 -4 -4 -5
-6 -6 -7 -7 -7 -7 -7 -7 -7 -7 -7 -7 -7 -6 -5 -4 -4 -4 -5 -5 -5 -4 -4 -4 -4 -3 -3 -3 -3 -3 -3 -2 -1 -1 0 0 -1 -2 -3 -3 -3 -4 -4
-6 -7 -7 -8 -8 -8 -7 -7 -8 -8 -8 -8 -7 -6 -6 -5 -5 -5 -4 -4 -4 -4 -4 -4 -4 -4 -3 -3 -3 -3 -3 -2 -2 -1 -0 0 -0 -1 -2 -3 -3 -3 -4
-6 -6 -7 -8 -8 -8 -8 -8 -8 -8 -8 -8 -7 -7 -7 -6 -6 -5 -4 -4 -4 -4 -4 -4 -4 -4 -4 -3 -3 -3 -3 -3 -2 -2 -1 -1 -0 -1 -1 -2 -2 -3 -3
-4 -5 -6 -7 -8 -8 -8 -8 -8 -8 -8 -8 -8 -7 -7 -7 -6 -6 -5 -4 -4 -4 -4 -4 -4 -4 -4 -4 -3 -3 -3 -3 -3 -2 -2 -1 -1 -1 -1 -1 -2 -2 -3
-4 -4 -6 -6 -7 -8 -8 -8 -8 -8 -8 -8 -7 -7 -7 -7 -7 -6 -5 -4 -4 -4 -4 -4 -4 -4 -4 -4 -4 -3 -3 -3 -3 -2 -2 -1 -1 -1 -1 -1 -2 -2 -2
-3 -4 -5 -6 -7 -7 -8 -8 -8 -7 -8 -8 -7 -7 -7 -7 -7 -6 -5 -5 -5 -5 -4 -4 -4 -4 -5 -5 -4 -4 -3 -3 -3 -2 -2 -1 -1 -1 -1 -1 -1 -2 -2
-4 -4 -6 -6 -7 -8 -8 -8 -7 -7 -8 -7 -7 -7 -7 -7 -7 -6 -5 -5 -5 -5 -5 -4 -4 -4 -5 -5 -5 -5 -4 -4 -3 -3 -2 -2 -1 -1 -1 -1 -1 -1 -1
-4 -5 -6 -6 -7 -8 -8 -8 -8 -8 -8 -8 -8 -8 -7 -7 -6 -6 -5 -5 -5 -5 -5 -4 -4 -4 -5 -5 -5 -5 -5 -4 -4 -4 -3 -2 -1 -1 -1 -1 -1 -1 -1
-5 -5 -6 -7 -8 -8 -9 -9 -9 -8 -8 -9 -9 -8 -8 -7 -6 -5 -4 -4 -5 -5 -5 -5 -4 -5 -5 -5 -5 -5 -5 -5 -4 -4 -3 -3 -2 -1 -0 -0 -0 -0 -0
-6 -6 -7 -8 -8 -9 -9 -10 -9 -9 -9 -9 -9 -9 -7 -6 -4 -3 -3 -3 -3 -3 -4 -4 -4 -4 -4 -4 -4 -5 -5 -5 -4 -4 -3 -3 -2 -1 -0 0 0 0 -0
-6 -7 -8 -8 -9 -9 -10 -10 -10 -10 -9 -9 -9 -7 -6 -5 -3 -2 -2 -1 -1 -1 -1 -1 -1 -2 -2 -3 -4 -4 -4 -4 -4 -3 -3 -3 -2 -1 -0 0 0 0 0
-7 -8 -8 -9 -9 -9 -9 -10 -10 -10 -9 -8 -7 -5 -4 -3 -2 -2 -1 -1 -1 -0 0 0 0 0 -0 -1 -2 -2 -3 -3 -3 -3 -3 -2 -2 -1 -1 -0 0 0 -0
-8 -8 -9 -9 -9 -9 -9 -9 -9 -9 -8 -6 -4 -3 -2 -1 -1 -0 0 -0 -1 -1 -0 0 0 1 0 0 -0 -0 -0 -1 -1 -2 -2 -2 -2 -2 -2 -1 -1 -1 -1
-9 -9 -10 -10 -10 -9 -8 -8 -7 -7 -6 -3 -1 -0 0 1 1 1 1 1 0 -0 -0 0 0 0 0 0 1 1 1 1 1 0 -1 -2 -3 -3 -3 -3 -3 -2 -2
-10 -10 -10 -10 -10 -9 -8 -7 -6 -5 -3 -1 0 1 2 2 2 1 1 1 1 0 0 0 0 0 1 1 1 2 2 2 2 2 1 -0 -2 -3 -4 -4 -4 -4 -3
-10 -10 -10 -9 -9 -8 -6 -5 -4 -3 -2 -1 0 1 2 2 1 1 1 1 1 1 1 1 1 1 2 3 3 3 3 3 3 3 2 2 -0 -2 -3 -4 -4 -4 -5
-9 -8 -7 -6 -6 -5 -4 -3 -3 -2 -1 -1 0 1 1 1 1 2 2 2 1 1 1 1 2 2 3 3 4 4 4 4 4 4 3 3 2 -0 -2 -3 -3 -4 -5
-8 -7 -5 -4 -4 -3 -2 -2 -2 -2 -1 -1 -0 0 1 2 2 2 2 2 2 2 2 2 2 2 3 3 4 4 4 4 4 4 4 4 3 1 -0 -1 -3 -4 -5